COSMOS 1429

Satellite information

Favourite Embed

Satellite Type and Status

PAYLOADIN ORBIT

Key statistics

Satellite COSMOS 1429 at a glance.

Uptime

15625

Days in orbit

Revolutions

≈ 12.4

Per day

Orbit

LEO

Low Earth Orbit

Inclination

74.0

Latest

Satellite identification and parameters

Extended collection of information and parameters for COSMOS 1429.

Object identification

Identified? True

Debris? False

Object name: COSMOS 1429

International designator: 1983-002A

Object number (NORAD): 13761

Object ID (CCSDS): 13761

Country: COMMONWEALTH OF INDEPENDENT STATES (CIS)

Current information (Y/N): Y

RCS size: MEDIUM

Orbital parameters

Period: 115.808 minutes

Inclination: 74.0233 deg

SMA: 7870.211 km

Apoapsis: 1517.561 km

Periapsis: 1466.592 km

RAAN: 170.8616 deg

Eccentricy: 0.00323813

Argument of periapsis: 116.7806 deg

Mean anomaly: 272.1531 deg

Mean motion: 12.4343523 rev/day

Mean motion (dot): -0.00000017 rev/day2

B* drag term: -0.000009564012 1/REarth

Two-line elements (TLE)

Creation date: Oct. 28, 2025, 7:11 p.m.

Reference frame: TEME

Reference center: EARTH

Epoch: Oct. 28, 2025, 2:46 p.m. UTC

TLE line 0: 0 COSMOS 1429

TLE line 1: 1 13761U 83002A 25301.61532310 -.00000017 00000-0 -95640-5 0 9992

TLE line 2: 2 13761 74.0233 170.8616 0032381 116.7806 272.1531 12.43435230941613

Live tracking on map

Real-time ground track for satellite COSMOS 1429.

In-orbit conjunctions

There are no conjunctions computed for COSMOS 1429, at the moment. Check back to stay up to date, as we update our databases every day.

Go to all conjunctions

Associated space launch

Military communications satellites

COSMOS 1429 was lifted into orbit during the mission ‘Kosmos-3M | Strela-1M 257-264’, on board a Kosmos-3M space rocket.

The launch took place on Jan. 19, 1983, 2:25 a.m. from 132/1 (132L).

For more information about the launch, click the button.

Launch to space Kosmos-3M | Strela-1M 257-264
Kosmos-3M | Strela-1M 257-264

Agency: N/A

Status: Launch Successful

Launch date: Jan. 19, 1983, 2:25 a.m. UTC

Rocket: Kosmos-3M

Launch pad: 132/1 (132L)

Location: Plesetsk Cosmodrome, Russian Federation

...

Latest news about this satellite

There are no fresh news available about this satellite. Check back as we update our databases every day.


Newsletter sign-up

Weekly statistics, charts and insights to help you stay on top of the space industry.